Location: Unspecified
(44.3229°N, 0.0000°E)
Time: 15:37:52
(UTC+00:00)

SHIYUAN - Visible Passes

Search period start: 04 April 2026 00:00
Search period end: 14 April 2026 00:00
Orbit: 771 x 805 km, 98.7° (Epoch: 29 March)

Date Brightness Start Highest point End Pass type
(mag) Time Alt. Az. Time Alt. Az. Time Alt. Az.
4 Apr 9.2 19:45:24 10° WSW 19:47:10 12° W 19:48:56 10° WNW visible
5 Apr 8.7 19:12:43 10° SW 19:16:41 22° W 19:20:41 10° NW visible
8 Apr 8.8 19:22:18 10° SW 19:25:51 19° W 19:29:26 10° NW visible
11 Apr 8.9 19:32:01 10° SW 19:35:03 16° W 19:38:05 10° NW visible
